Winner, SD

3:44 PM CDT on September 29, 2016 (GMT -0500)
Winner

Weather History for KICR - July, 2013

Change the Weather History Date:

Monday, July 29, 2013

  Actual Average Record
Temperature  
Mean Temperature 70 °F 77 °F  
Max Temperature 77 °F 89 °F 95 °F (2012)
Min Temperature 62 °F 64 °F 52 °F (2014)
Degree Days  
Heating Degree Days 0 0  
Month to date heating degree days 7 0  
Since 1 June heating degree days 60 54  
Since 1 July heating degree days 7 0  
Cooling Degree Days 5 12  
Month to date cooling degree days 274 308  
Year to date cooling degree days 445 483  
Since 1 June cooling degree days 406 453  
Growing Degree Days 19 (Base 50)    
Moisture  
Dew Point 60 °F    
Average Humidity 81    
Maximum Humidity 93    
Minimum Humidity 69    
Precipitation  
Precipitation T in 0.11 in 0.32 in (2010)
Month to date precipitation 2.53 2.73  
Year to date precipitation 13.43 14.45  
Sea Level Pressure  
Sea Level Pressure 29.97 in    
Wind  
Wind Speed 11 mph (SE)    
Max Wind Speed 18 mph    
Max Gust Speed 25 mph    
Visibility 10 miles    
Events      
T = Trace of Precipitation, MM = Missing Value Source: NWS Daily Summary

Daily Weather History Graph

Daily Weather History Graph

Search for Another Location

Airport or City:

Trip Planner

Search our weather history database for the weather conditions in past years. The results will help you decide how hot, cold, wet, or windy it might be!

Date:

Astronomy

Jul. 29, 2013 Rise Set
Actual Time 6:26 AM CDT 9:04 PM CDT
Civil Twilight 5:53 AM CDT 9:37 PM CDT
Nautical Twilight 5:12 AM CDT 10:18 PM CDT
Astronomical Twilight 4:25 AM CDT 11:05 PM CDT
Moon 12:13 AM CDT 2:25 PM CDT
Length of Visible Light 15h 43m
Length of Day
14h 38m
Waning Gibbous, 50% of the Moon is Illuminated
Jul 29
Waning Gibbous
Jul 29
Last Quarter
Aug 6
New
Aug 14
First Quarter
Aug 20
Full

Hourly Weather History & Observations

Time (CDT) Temp. Dew Point Humidity Pressure Visibility Wind Dir Wind Speed Gust Speed Precip Events Conditions
12:53 AM 63.0 °F 54.0 °F 72% 29.99 in 10.0 mi SE 5.8 mph - N/A   Clear
1:53 AM 63.0 °F 55.0 °F 75% 29.97 in 10.0 mi SSE 6.9 mph - N/A   Mostly Cloudy
2:53 AM 63.0 °F 55.9 °F 78% 29.96 in 10.0 mi SE 5.8 mph - N/A   Mostly Cloudy
3:51 AM 64.4 °F 55.4 °F 73% 29.99 in 10.0 mi SSE 8.1 mph - N/A   Overcast
3:53 AM 64.0 °F 55.0 °F 73% 29.95 in 10.0 mi SSE 9.2 mph - N/A   Overcast
4:53 AM 63.0 °F 55.9 °F 78% 29.94 in 10.0 mi SE 5.8 mph - N/A   Overcast
5:53 AM 64.0 °F 55.9 °F 75% 29.92 in 10.0 mi SE 10.4 mph - N/A   Overcast
6:53 AM 64.9 °F 57.0 °F 75% 29.93 in 10.0 mi SSE 11.5 mph - N/A   Overcast
7:53 AM 64.9 °F 57.0 °F 75% 29.94 in 10.0 mi SSE 10.4 mph - N/A   Overcast
8:53 AM 64.9 °F 59.0 °F 81% 29.96 in 10.0 mi SSE 12.7 mph 20.7 mph N/A   Overcast
9:35 AM 64.4 °F 60.8 °F 88% 29.98 in 10.0 mi SSE 11.5 mph 23.0 mph 0.00 in   Overcast
9:53 AM 66.0 °F 61.0 °F 84% 29.95 in 10.0 mi SSE 15.0 mph 21.9 mph 0.00 in   Overcast
10:02 AM 68.0 °F 60.8 °F 78% 29.97 in 10.0 mi SSE 15.0 mph 23.0 mph N/A   Overcast
10:27 AM 68.0 °F 60.8 °F 78% 29.98 in 10.0 mi South 17.3 mph 24.2 mph N/A   Overcast
10:53 AM 66.9 °F 60.1 °F 79% 29.96 in 10.0 mi South 13.8 mph 25.3 mph N/A   Overcast
11:53 AM 66.9 °F 61.0 °F 81% 29.96 in 10.0 mi SSE 11.5 mph 19.6 mph N/A   Overcast
12:53 PM 66.9 °F 61.0 °F 81% 29.96 in 10.0 mi SE 15.0 mph - N/A   Overcast
1:53 PM 69.1 °F 61.0 °F 75% 29.96 in 10.0 mi SSE 12.7 mph - N/A   Overcast
2:53 PM 71.1 °F 63.0 °F 75% 29.95 in 10.0 mi SE 11.5 mph - N/A   Overcast
3:53 PM 73.9 °F 64.0 °F 71% 29.94 in 10.0 mi SE 15.0 mph 21.9 mph N/A   Mostly Cloudy
4:01 PM 75.2 °F 62.6 °F 65% 29.97 in 10.0 mi SE 13.8 mph 21.9 mph N/A   Scattered Clouds
4:21 PM 75.2 °F 62.6 °F 65% 29.96 in 10.0 mi ESE 11.5 mph - N/A   Mostly Cloudy
4:53 PM 75.9 °F 64.0 °F 67% 29.93 in 10.0 mi SE 12.7 mph - N/A   Overcast
5:25 PM 75.2 °F 62.6 °F 65% 29.96 in 10.0 mi SE 12.7 mph - N/A   Mostly Cloudy
5:53 PM 75.9 °F 64.0 °F 67% 29.93 in 10.0 mi SE 11.5 mph - N/A   Mostly Cloudy
6:53 PM 73.0 °F 64.0 °F 73% 29.93 in 10.0 mi ESE 15.0 mph - N/A   Partly Cloudy
7:53 PM 71.1 °F 64.0 °F 78% 29.94 in 10.0 mi ESE 16.1 mph 20.7 mph N/A   Clear
8:53 PM 68.0 °F 63.0 °F 84% 29.96 in 10.0 mi ESE 11.5 mph - N/A   Clear
9:36 PM 64.4 °F 62.6 °F 94% 30.01 in 10.0 mi ESE 11.5 mph - N/A   Partly Cloudy
9:53 PM 64.9 °F 62.1 °F 90% 29.99 in 10.0 mi ESE 11.5 mph - N/A   Partly Cloudy
10:53 PM 64.9 °F 63.0 °F 93% 30.01 in 10.0 mi SE 10.4 mph - N/A   Clear
11:06 PM 64.4 °F 62.6 °F 94% 30.04 in 10.0 mi SE 10.4 mph - N/A   Partly Cloudy
11:19 PM 64.4 °F 62.6 °F 94% 30.04 in 10.0 mi SSE 9.2 mph - N/A   Mostly Cloudy
11:53 PM 64.9 °F 63.0 °F 93% 30.02 in 10.0 mi SSE 6.9 mph - N/A   Mostly Cloudy